OpenBCM V1.07b12 (Linux)

Packet Radio Mailbox

DB0FHN

[JN59NK Nuernberg]

 Login: GUEST





  
I6KZR  > KEPLER   29.12.02 04:35l 315 Lines 15606 Bytes #999 (0) @ WW
BID : 1417_FG1JD
Read: DB0FHN GUEST
Subj: 2L Keplerian Elements #352
Path: DB0FHN<DB0RGB<OK0PPL<OK0NAG<9A0BBS<LZ0FBB<HA8FY<HA3PG<JE7YGF<LU6DTS<
      LZ3NP<PY2DML<PY2GN<FG1JD<FG5DN<F1HPZ<ON4HU<7M3TJZ<WB0TAX<EA2RCF<IK6PYS<
      I6ZLO<IK6WID
Sent: 021218/2022Z @:IK6WID.#AP.IMAR.ITA.EU #:12687 [MONTE URANO]  FBB7.00i
From: I6KZR@IK6WID.#AP.IMAR.ITA.EU
To  : KEPLER@WW


OSCAR 7
1 07530U 74089B   02351.64439065 -.00000029 +00000-0 +10000-3 0 01685
2 07530 101.7720 034.9979 0012142 199.4538 160.6070 12.53562677285307
GOES 2
1 10061U 77048A   02351.31191633 -.00000150  00000-0  00000+0 0   214
2 10061  14.1081  13.9261 0013653 191.4874 168.4810  0.99401744 38208
GOES 3
1 10953U 78062A   02351.11311099 -.00000077  00000-0  00000+0 0  8585
2 10953  13.3806  17.7160 0004292 338.6568  21.3213  1.00276992 42867
GOES 6
1 14050U 83041A   02348.24240013  .00000075  00000-0  10000-3 0  4046
2 14050  10.3169  35.9007 0002737 357.5651   2.3926  1.00281064129979
OSCAR 10
1 14129U 83058B   02345.92326890 +.00000278 +00000-0 +10000-3 0 09074
2 14129 025.8140 175.7887 6053359 309.7142 010.8395 02.05865203118657
OSCAR 11 (UoSAT 2)
1 14781U 84021B   02352.52599491  .00002718  00000-0  38585-3 0   218
2 14781  98.1091 321.0206 0010765  52.4342 307.7844 14.77760999  7070
NOAA 10
1 16969U 86073A   02352.00629543  .00000359  00000-0  16565-3 0  5973
2 16969  98.7243 341.2707 0011657 269.9480  90.0363 14.27031495844988
GOES 7
1 17561U 87022A   02351.63400128  .00000105  00000-0  10000-3 0  7790
2 17561   7.4890  55.8963 0005681 298.1842 147.3083  1.00301558 41116
COSMOS 1861
1 18129U 87054A   02351.67937549 +.00000097 +00000-0 +88684-4 0 01857
2 18129 082.9248 193.0584 0013132 045.8586 314.3646 13.72692729775882
EUTELSAT 1-F4 (ECS 4)
1 18351U 87078B   02342.19465858  .00000145  00000-0  10000-3 0   170
2 18351   7.1132  58.7611 0036776 197.5270 283.7435  1.00278104 41967
NOAA 11
1 19531U 88089A   02352.05302015  .00000324  00000-0  19204-3 0  4342
2 19531  98.9097  68.6179 0012131  23.1723 336.9995 14.14501484733960
ASTRA 1A
1 19688U 88109B   02350.64466155  .00000059  00000-0  10000-3 0  5461
2 19688   1.2313  95.9198 0003534 158.3889  68.0800  1.00273085 31554
OSCAR 14 (UOSAT 3)
1 20437U 90005B   02351.71915573  .00000275  00000-0  11955-3 0  1203
2 20437  98.2804  33.3070 0011575  32.1480 328.0406 14.31210278673505
OSCAR 15 (UOSAT 4)
1 20438U 90005C   02351.62320126 +.00000197 +00000-0 +91870-4 0 07741
2 20438 098.2550 022.6215 0010879 042.8099 317.3928 14.30175698673163
OSCAR 16 (PACSAT)
1 20439U 90005D   02351.67438298  .00000317  00000-0  13493-3 0  8252
2 20439  98.3278  44.5765 0011825  38.1052 322.0976 14.31438966673532
OSCAR 17 (DOVE)
1 20440U 90005E   02351.95500804 +.00000351 +00000-0 +14715-3 0 07309
2 20440 098.3454 048.5915 0011710 036.9616 323.2371 14.31713966673646
OSCAR 18 (WEBERSAT)
1 20441U 90005F   02351.93838271 +.00000311 +00000-0 +13246-3 0 09676
2 20441 098.3438 047.8276 0012450 037.6340 322.5712 14.31521534673622
OSCAR 19 (LUSAT)
1 20442U 90005G   02352.20347585  .00000322  00000-0  13631-3 0  9198
2 20442  98.3552  50.9918 0012816  34.9542 325.2479 14.31683825673710
JAS 1B (FUJI 2)
1 20480U 90013C   02351.94411654 +.00000013 +00000-0 +95204-4 0 04603
2 20480 099.0364 321.4972 0540814 145.6342 218.1015 12.83326774602483
HST
1 20580U 90037B   02351.65054565  .00004247  00000-0  34249-3 0  2604
2 20580  28.4657  86.7232 0003685 326.7340 129.3137 14.97496753493191
EUTELSAT 2-F1
1 20777U 90079B   02351.98312120 -.00000054  00000-0  10000-3 0    46
2 20777   3.3502  85.1193 0000539 258.8303 167.5686  1.00384863 25471
FENGYUN 1B
1 20788U 90081A   02352.52284745  .00000343  00000-0  25311-3 0  8378
2 20788  99.0178 330.3350 0016429  41.2867 318.9539 14.02118882628849
EUTELSAT 2-F2
1 21056U 91003B   02349.98835899  .00000143  00000-0  10000-3 0  5992
2 21056   2.5680  88.4931 0001562 127.9216 272.3162  1.00274967 31230
INFORMATOR 1
1 21087U 91006A   02351.97453617 +.00000113 +00000-0 +10179-3 0 05854
2 21087 082.9420 003.7651 0037117 064.9116 295.5887 13.74918888596284
COSMOS 2123
1 21089U 91007A   02352.22403577  .00000107  00000-0  96371-4 0  4767
2 21089  82.9240 227.6297 0030563  98.0008 262.4617 13.74396821595229
ASTRA 1B
1 21139U 91015A   02346.00000000  .00000129  00000-0  10000-3 0  1546
2 21139   0.0122 319.8851 0002995  65.1991  74.6601  1.00273184 31503
METEOSAT 5 (MOP 2)
1 21140U 91015B   02350.62557324  .00000040  00000-0  10000-3 0  6409
2 21140   5.4888  70.3676 0001203 162.8180 139.9574  1.00274981 45407
NOAA 12
1 21263U 91032A   02352.06475638  .00000580  00000-0  26614-3 0  9018
2 21263  98.6200 337.7791 0012234 200.8555 159.2126 14.25026334602313
OSCAR 22 (UoSAT 5)
1 21575U 91050B   02352.21164853  .00000603  00000-0  20814-3 0  6788
2 21575  98.1357 342.5031 0007138 330.0394  30.0387 14.39098725599310
METEOR 3-5
1 21655U 91056A   02351.92179136 +.00000051 +00000-0 +10000-3 0 05580
2 21655 082.5562 083.1282 0013727 000.2855 359.8278 13.16975068545230
UARS
1 21701U 91063B   02352.16607346  .00001742  00000-0  14840-3 0  7784
2 21701  56.9811 284.6002 0006969 106.0857 254.0929 15.02694467616336
EUTELSAT 2-F3
1 21803U 91083A   02349.94409145  .00000151  00000-0  10000-3 0  5008
2 21803   2.4366  89.7465 0002606 185.8204 170.2145  1.00276341 36348
INMARSAT 2-F3
1 21814U 91084B   02352.19952689  .00000136  00000-0  10000-3 0  5832
2 21814   1.6934  57.5337 0002521 203.1680 115.7534  1.00270598 40261
INMARSAT 2-F4
1 21940U 92021B   02350.72889546 -.00000330  00000-0  10000-3 0  5569
2 21940   2.3900  18.4549 0002137 214.5829 223.4119  1.00263904 39040
EUTELSAT 2-F4
1 22028U 92041B   02348.96765626 -.00000080  00000-0  10000-3 0  3070
2 22028   1.5564  93.3762 0004002 157.7435 168.3661  1.00270306 31111
OSCAR 23 (KITSAT 1)
1 22077U 92052B   02351.90623857 -.00000037 +00000-0 +10000-3 0 01792
2 22077 066.0855 256.9556 0014323 287.4067 072.5386 12.86406039486249
ASTRA 1C
1 22653U 93031A   02346.00000000  .00000129  00000-0  10000-3 0  7803
2 22653   0.0122 319.8851 0002995  65.1991  74.6147  1.00273184 30206
METEOR 2-21
1 22782U 93055A   02351.68883470  .00000167  00000-0  13744-3 0  4685
2 22782  82.5492 264.7645 0022738 159.0637 201.1475 13.83523086469390
KITSAT B
1 22825U 93061C   02351.94224323 +.00000266 +00000-0 +12149-3 0 04436
2 22825 098.2812 019.8153 0009537 083.7089 276.5179 14.28914398480937
POSAT 1
1 22826U 93061D   02351.63217207  .00000310  00000-0  13830-3 0  2847
2 22826  98.2823  20.6063 0009895  82.7452 277.4853 14.29134612480933
ITAMSAT
1 22828U 93061F   02351.62762149 +.00000252 +00000-0 +11468-3 0 03827
2 22828 098.2771 020.8655 0011010 064.1452 296.0865 14.29480925449130
EYESAT A
1 22829U 93061G   02351.64798707  .00000391  00000-0  16818-3 0  4031
2 22829  98.2806  21.4589 0010823  64.5395 295.6906 14.29727415481061
METEOSAT 6
1 22912U 93073B   02349.92583334  .00000088  00000-0  00000+0 0  5983
2 22912   2.5229  82.6977 0005270  44.4669 300.2823  1.00281120 31641
GOES 8
1 23051U 94022A   02352.26142869 -.00000226  00000-0  00000+0 0  5231
2 23051   0.4695  98.3711 0002329 161.3438 206.4875  1.00269538 39185
ASTRA 1D
1 23331U 94070A   02349.94650464  .00000162  00000-0  00000+0 0  7938
2 23331   0.0598 209.4892 0005595  83.9234 155.9056  1.00270852 30226
RADIO ROSTO
1 23439U 94085A   02351.94307065 -.00000040 +00000-0 +59596-4 0 06857
2 23439 064.8107 142.7500 0148674 127.3971 234.0592 11.27548253328532
NOAA 14
1 23455U 94089A   02352.03191504  .00000258  00000-0  16238-3 0  4560
2 23455  99.1893   3.9532 0009882  47.7659 312.4355 14.13267726410644
HIMAWARI 5 (GMS 5)
1 23522U 95011B   02351.59413556 -.00000256  00000-0  00000+0 0   139
2 23522   1.5820  82.4184 0001977 107.7539 249.6604  1.00283108 28256
HOT BIRD 1
1 23537U 95016B   02346.14250450  .00000000  00000-0  10000-3 0  5302
2 23537   0.0258 153.9793 0056718 157.0947 193.3169  1.00272124 28285
GOES 9
1 23581U 95025A   02350.29230458 -.00000057  00000-0  00000+0 0  4349
2 23581   0.5022  95.1316 0007006 240.2263 108.1529  1.00272391 27726
INMARSAT 3-F1
1 23839U 96020A   02351.91940911  .00000042  00000-0  00000+0 0  8373
2 23839   0.0442  12.7807 0003711 234.5488 233.9159  1.00272628 24587
ASTRA 1F
1 23842U 96021A   02346.00000000  .00000129  00000-0  10000-3 0  5534
2 23842   0.0122 319.8851 0002995  65.1991  74.6507  1.00273184 24435
JAS 2
1 24278U 96046B   02351.90130665 +.00000052 +00000-0 +88045-4 0 05586
2 24278 098.5300 146.6581 0351499 019.0495 342.3423 13.52866730312839
UNAMSAT
1 24305U 96052B   02351.98236838 +.00000205 +00000-0 +20364-3 0 06480
2 24305 082.9324 309.0657 0031629 019.6449 340.5907 13.73442094314898
INMARSAT 3-F2
1 24307U 96053A   02351.89357852 -.00000098  00000-0  00000+0 0   580
2 24307   0.0488 358.4137 0004317 273.2599 120.8568  1.00272361 22995
HOT BIRD 2
1 24665U 96067A   02346.51945001  .00000000  00000-0  10000-3 0  3360
2 24665   0.0371 255.0826 0047319  44.6772 340.8380  1.00272268 22589
INMARSAT 3-F3
1 24674U 96070A   02352.39355096  .00000065  00000-0  10000-3 0  9509
2 24674   0.0560 344.9079 0004235 284.5732 137.1361  1.00270124 21964
GOES 10
1 24786U 97019A   02351.49925354  .00000115  00000-0  00000+0 0  4659
2 24786   0.0271 270.6429 0002253  12.2663 207.2683  1.00269134 20704
INMARSAT 3-F4
1 24819U 97027A   02349.14410881 -.00000265  00000-0  10000-3 0  8553
2 24819   0.0216 344.3926 0003108 282.0987 175.0287  1.00269518 20356
FENGYUN 2A
1 24834U 97029A   02348.84940602 -.00000180  00000-0  00000+0 0  9380
2 24834   2.4096  89.0559 0001574 217.4574 169.1983  1.00271137 20187
HOT BIRD 3
1 24931U 97049A   02346.51791994  .00000000  00000-0  10000-3 0  4166
2 24931   0.0172 214.0703 0006313  29.1340  37.3397  1.00272578 19408
METEOSAT 7
1 24932U 97049B   02352.04458009  .00000021  00000-0  00000+0 0  2143
2 24932   0.1039   8.0829 0001194 234.6343 219.8301  1.00268266 19399
